Back to catalog

OSCAR 23

KITSAT 1

AliveAmateur RadioLEO
NORAD 22077·PAYLOAD·🇰🇷 South Korea

Launched Aug 10, 1992 from Guiana Space Centre

Loading…

Next Passes (next 24 hours)

TLE

FreshSource: Space-Track

Epoch: Sep 14, 2026, 12:53 UTC

1 22077U 92052B   26257.53735554 -.00000061  00000-0  52398-5 0  9995
2 22077  66.0830  93.9234 0015526 261.5075 114.9403 12.86615179601182

Track OSCAR 23 in real time with AllMySat

Download on the App Store